PARAKH EGKH-EGKH

Flight info

Callsign PARAKH
Flight time 0h 15m
Altitude 3000
Route EGKH270002 DCT EGKH225002 DCT EGKH180002 DCT EGKH135002 DCT EGKH090002 DCT EGKH045002 DCT EGKH360002 DCT EGKH315002
Aircraft C208/L-SDFGR/C

Departure

Time 2026-04-20 10:24
Airport Headcorn Aerodrome (EGKH)

Arrival

Time 2026-04-20 10:40
Airport Headcorn Aerodrome (EGKH)
Time Latitude Longitude Altitude Speed Heading
2026-04-20 10:15 51.15462 0.64726 88 ft 0 kts 293°
2026-04-20 10:23 51.15505 0.64773 88 ft 17 kts 89°
2026-04-20 10:23 51.15527 0.64913 81 ft 12 kts 349°
2026-04-20 10:23 51.15576 0.64755 78 ft 44 kts 287°
2026-04-20 10:23 51.15693 0.63963 258 ft 90 kts 287°
2026-04-20 10:24 51.15885 0.62825 501 ft 115 kts 289°
2026-04-20 10:24 51.15995 0.61510 836 ft 127 kts 274°
2026-04-20 10:24 51.15775 0.60145 1288 ft 129 kts 247°
2026-04-20 10:24 51.15082 0.59267 1792 ft 134 kts 191°
2026-04-20 10:25 51.14157 0.59182 2244 ft 133 kts 179°
2026-04-20 10:25 51.13236 0.59202 2717 ft 134 kts 176°
2026-04-20 10:25 51.12301 0.59260 3181 ft 135 kts 174°
2026-04-20 10:25 51.11360 0.59361 3673 ft 136 kts 167°
2026-04-20 10:26 51.10690 0.60202 4094 ft 121 kts 103°
2026-04-20 10:26 51.10837 0.61342 4520 ft 108 kts 39°
2026-04-20 10:26 51.11546 0.61681 4996 ft 108 kts
2026-04-20 10:26 51.12305 0.61800 5434 ft 111 kts
2026-04-20 10:27 51.13086 0.61875 5854 ft 113 kts
2026-04-20 10:27 51.13758 0.62433 6290 ft 114 kts 46°
2026-04-20 10:27 51.14327 0.63303 6712 ft 114 kts 42°
2026-04-20 10:27 51.14890 0.64188 7098 ft 114 kts 42°
2026-04-20 10:28 51.15444 0.65099 7507 ft 115 kts 41°
2026-04-20 10:28 51.16029 0.65965 7918 ft 115 kts 37°
2026-04-20 10:28 51.16630 0.66805 8314 ft 115 kts 37°
2026-04-20 10:28 51.17287 0.67462 8724 ft 111 kts
2026-04-20 10:29 51.17891 0.66841 9157 ft 114 kts 294°
2026-04-20 10:29 51.17984 0.65576 9591 ft 120 kts 264°
2026-04-20 10:29 51.17558 0.64381 10032 ft 127 kts 243°
2026-04-20 10:29 51.17047 0.63164 10298 ft 140 kts 242°
2026-04-20 10:30 51.16483 0.61848 10428 ft 147 kts 241°
2026-04-20 10:30 51.15886 0.60497 10567 ft 151 kts 237°
2026-04-20 10:30 51.14953 0.59677 10688 ft 163 kts 188°
2026-04-20 10:30 51.13873 0.60173 10818 ft 166 kts 144°
2026-04-20 10:31 51.13033 0.61399 10942 ft 164 kts 116°
2026-04-20 10:31 51.13036 0.62995 11238 ft 139 kts 57°
2026-04-20 10:31 51.13611 0.64198 11542 ft 126 kts 39°
2026-04-20 10:31 51.14186 0.65024 11987 ft 108 kts 32°
2026-04-20 10:32 51.14760 0.65769 12082 ft 105 kts 29°
2026-04-20 10:32 51.15335 0.66489 12123 ft 106 kts 32°
2026-04-20 10:32 51.15918 0.67179 12196 ft 103 kts 22°
2026-04-20 10:32 51.16696 0.67235 11391 ft 141 kts 336°
2026-04-20 10:33 51.17358 0.66060 10947 ft 148 kts 294°
2026-04-20 10:33 51.17536 0.64250 9521 ft 193 kts 272°
2026-04-20 10:33 51.17072 0.62302 9055 ft 183 kts 238°
2026-04-20 10:33 51.16212 0.60825 8251 ft 189 kts 221°
2026-04-20 10:34 51.14961 0.60045 7390 ft 198 kts 183°
2026-04-20 10:34 51.13715 0.60651 6812 ft 186 kts 141°
2026-04-20 10:34 51.12966 0.62381 5978 ft 181 kts 104°
2026-04-20 10:35 51.13258 0.65900 4765 ft 166 kts 59°
2026-04-20 10:35 51.14009 0.67221 4230 ft 157 kts 34°
2026-04-20 10:35 51.14951 0.68044 3654 ft 154 kts 25°
2026-04-20 10:35 51.15988 0.68228 2898 ft 161 kts 344°
2026-04-20 10:36 51.16775 0.67081 2654 ft 150 kts 300°
2026-04-20 10:36 51.17012 0.65524 2442 ft 144 kts 284°
2026-04-20 10:36 51.17325 0.63995 2048 ft 146 kts 302°
2026-04-20 10:36 51.17625 0.62459 1788 ft 146 kts 275°
2026-04-20 10:37 51.17038 0.61402 1740 ft 139 kts 192°
2026-04-20 10:37 51.16119 0.61454 1789 ft 121 kts 160°
2026-04-20 10:37 51.15518 0.62312 1655 ft 119 kts 111°
2026-04-20 10:37 51.15110 0.63429 1544 ft 120 kts 118°
2026-04-20 10:38 51.14628 0.64555 1451 ft 119 kts 123°
2026-04-20 10:38 51.14141 0.65604 1356 ft 120 kts 120°
2026-04-20 10:38 51.13797 0.66790 1089 ft 121 kts 81°
2026-04-20 10:38 51.14229 0.67735 1042 ft 108 kts 17°
2026-04-20 10:39 51.14981 0.67655 799 ft 103 kts 345°
2026-04-20 10:39 51.15247 0.66761 579 ft 93 kts 283°
2026-04-20 10:39 51.15385 0.65839 336 ft 83 kts 294°
2026-04-20 10:39 51.15539 0.64985 101 ft 76 kts 291°
2026-04-20 10:40 51.15652 0.64330 82 ft 44 kts 286°
2026-04-20 10:40 51.15630 0.64230 86 ft 16 kts 108°
2026-04-20 10:40 51.15598 0.64408 91 ft 15 kts 109°
2026-04-20 10:40 51.15577 0.64535 88 ft 9 kts 102°
2026-04-20 10:41 51.15566 0.64611 88 ft 5 kts 103°
2026-04-20 10:41 51.15562 0.64642 88 ft 0 kts 103°